{"data":{"norad_id":68709,"epoch":"2026-09-19T13:36:18.737856Z","epoch_age_seconds":124389,"freshness":"FRESH","line1":"1 68709U 26081L   26262.56688354  .00011659  00000+0  35567-3 0  9990","line2":"2 68709  53.1575 210.1955 0001304  85.1147 275.0004 15.34398134 24471","mean_motion":15.34398134,"eccentricity":0.0001304,"inclination_deg":53.1575,"raan_deg":210.1955,"arg_perigee_deg":85.1147,"mean_anomaly_deg":275.0004,"bstar":0.00035567,"rev_number":2447,"period_min":93.847872210721,"perigee_km":461.81674006743,"apogee_km":463.60083264851,"semimajor_km":6840.845786358,"source":"CELESTRAK","updated_at":"2026-09-20T09:00:43.959523Z"}}